Location: Unspecified
(47.6579°N, 23.5637°E)
Time: 13:18:16
(UTC+02:00)

Envisat - Pass Details

Date: 07 December 2021
Orbit: 764 x 766 km, 98.2° (Epoch: 23 January)

Event Time Altitude Azimuth Distance (km) Brightness Sun altitude
Rises 07:18:36 0° 359° (N) 3,245 6.0 -6.9°
Reaches altitude 10° 07:21:56 10° 336° (NNW) 2,313 5.0 -6.4°
Maximum altitude 07:24:35 15° 304° (NW) 2,012 4.5 -6.0°
Drops below altitude 10° 07:27:15 10° 272° (W) 2,305 4.9 -5.6°
Sets 07:30:34 0° 249° (WSW) 3,226 5.8 -5.1°
